Regional Weather Roundup
Issued by NWS

Home | Current Version | Previous Version | Text Only | Print | Product List | Glossary On
Versions: 1 2 3 4 5 6 7 8 9 10 11 12 13 14 15 16 17 18 19 20 21 22 23 24 25 26 27 28 29 30 31 32 33 34 35 36 37 38 39 40 41 42 43 44 45 46 47 48 49 50
000
ASUS45 KBOI 311210
RWRID
WEATHER ROUNDUP FOR IDAHO
NATIONAL WEATHER SERVICE BOISE ID
500 AM MST SAT JAN 31 2015

NOTE: "FAIR" INDICATES FEW OR NO CLOUDS BELOW 12000 FEET
WITH NO SIGNIFICANT WEATHER AND/OR OBSTRUCTIONS TO VISIBILITY

IDZ012-014-311300-
SOUTHWEST IDAHO


CITY           SKY/WX    TMP DP  RH WIND       PRES   REMARKS
BOISE          CLEAR     27  24  89 CALM      30.12S
CALDWELL       CLOUDY    25  18  74 CALM      30.16S VSB 1/4
MOUNTAIN HOME  FRZ DRZL  25  25 100 SW3       30.12R VSB 1/2
$$

IDZ016-017-311300-
SOUTHCENTRAL IDAHO


CITY           SKY/WX    TMP DP  RH WIND       PRES   REMARKS
BURLEY         CLOUDY    34  30  85 NW6       30.10R WCI  29
JEROME         CLOUDY    32  29  88 CALM      30.11R
TWIN FALLS     PTCLDY    30  25  81 S8        30.10R WCI  22
$$

IDZ019>023-311300-
SOUTHEAST IDAHO


CITY           SKY/WX    TMP DP  RH WIND       PRES   REMARKS
IDAHO FALLS    CLOUDY    30  28  92 S10       30.08R WCI  21
POCATELLO      CLOUDY    32  31  96 W9        30.10R WCI  24
REXBURG        CLOUDY    27  26  96 SW6       30.08R WCI  20
$$

IDZ006-010-011-018-031-032-311300-
CENTRAL IDAHO MOUNTAINS


CITY           SKY/WX    TMP DP  RH WIND       PRES   REMARKS
MCCALL         CLEAR     13   9  84 NE3       30.10R
HAILEY         CLEAR     21  10  63 NW13      30.07S WCI   9
STANLEY          N/A     -4 -10  75 CALM      30.16S
SALMON         CLOUDY    27  21  80 CALM      30.20F
CHALLIS        CLOUDY    23  18  81 N6        30.17S WCI  16
$$

IDZ002-004-006-007-026-311300-
NORTHERN IDAHO


CITY           SKY/WX    TMP DP  RH WIND       PRES   REMARKS
LEWISTON       CLOUDY    34  32  92 W3        30.27R
LOWELL           N/A     34  29  82 CALM      30.29R
COEUR D`ALENE  CLOUDY    30  27  86 SW5       30.23S WCI  25
MULLAN PASS    CLOUDY    20  18  92 N3        30.06R FOG
$$



USA.gov is the U.S. government's official web portal to all federal, state and local government web resources and services.